Eldridge, IA

7:21 PM CDT on August 30, 2016 (GMT -0500)
Ridgeview | | Change Station
Active Advisory: Flood Watch Active Notice: Local Storm Report

Elev 735 ft 41.59 °N, 90.60 °W | Updated 35 seconds ago

Clear
Clear
75.0 °F
Feels Like 73 °F
N
0.0
Wind Variable Wind from NNE

Today
High -- | Low -- °F
--% Chance of Precip.
Yesterday
High -- | Low -- °F
Precip. -- in
Pressure 30.06 in
Visibility 10.0 miles
Clouds Clear
Heat Index 73 °F
Dew Point 74 °F
Humidity 98%
Rainfall 0.46 in
Snow Depth Not available.
6:26 AM 7:37 PM
Waning Crescent, 2% visible
METAR KDVN 302352Z AUTO 00000KT 10SM CLR 23/22 A3007 RMK AO2 RAE18 SLP178 P0041 60053 T02330217 10294 20217 58005
Pressure 30.06 in
Visibility 10.0 miles
Clouds Clear
Heat Index 73 °F
Dew Point 74 °F
Humidity 98%
Rainfall 0.46 in
Snow Depth Not available.
6:26 AM 7:37 PM
Waning Crescent, 2% visible
METAR KDVN 302352Z AUTO 00000KT 10SM CLR 23/22 A3007 RMK AO2 RAE18 SLP178 P0041 60053 T02330217 10294 20217 58005

10-Day Weather Forecast

Almanac

Astronomy

Aug. 30, 2016 Rise Set
Actual Time
Civil Twilight
Nautical Twilight
Astronomical Twilight
Moon
Length of Visible Light
Length of Day
Tomorrow will be .
, % of the Moon is Illuminated

Today's Extremes

State Highs State Lows

Community

WunderPhotos

Upload Photos

1,935,961 photos uploaded!

WunderBlog® & News

Nearby

Air Quality

  Air Quality AQ Index Pollutant
Not available.

Snow Depth

Station Depth Elevation

Earthquake Activity

City Distance Mag. Time & Date
Minimum magnitude displayed is 2.5.

Coastal Water Temperatures

Place Temperature

Stations

Nearby Weather Stations

Station Location Temp. Windchill Dew Point Humidity Wind Precip. Elev Updated Type
                   

Watches & Warnings

Flood Watch
Issued: 9:06 AM CDT Aug. 30, 2016 – National Weather Service

The National Weather Service in Quad Cities has issued a
* Flood Watch for
the Wapsipinicon River near De Witt 4s
* until Tuesday morning.
* At 8:30 am Tuesday the stage was 9.6 feet.
* Flood stage is 11.0 feet.
* Minor flooding is possible.
* Recent activity... the river will keep falling today and then
begin rising again tonight.
* Forecast... rise above flood stage Saturday morning... and continue
rising to 11.3 feet Sunday morning. Fall below flood stage Tuesday
morning.
* This is based on forecast rainfall, consequently there is limited
confidence in the river reaching flood stage. Forecasts may change
so monitor for updated information.



Lat... Lon 4200 9090 4185 9090 4171 9080 4169 9035
      4177 9033 4184 9071